URG123 HAAB-HDAM

Flight info

Callsign URG123
Flight time 1h 29m
Altitude 19000
Route NIDEG1A NIDEG UB535 LAKBE LAKBE1U
Aircraft AN24/M-SDFGIRY/S

Departure

Time 2026-05-06 19:18
Airport Addis Ababa Bole International Airport (HAAB)

Arrival

Time 2026-05-06 20:48
Airport Djibouti-Ambouli Airport (HDAM)
Time Latitude Longitude Altitude Speed Heading
2026-05-06 18:54 8.97857 38.78298 7665 ft 0 kts 341°
2026-05-06 19:04 8.97844 38.78302 7665 ft 2 kts 341°
2026-05-06 19:04 8.97829 38.78303 7665 ft 1 kts 25°
2026-05-06 19:05 8.97817 38.78303 7665 ft 2 kts 334°
2026-05-06 19:05 8.97806 38.78306 7665 ft 0 kts 15°
2026-05-06 19:05 8.97802 38.78302 7665 ft 1 kts 80°
2026-05-06 19:05 8.97803 38.78287 7665 ft 1 kts 104°
2026-05-06 19:06 8.97805 38.78278 7665 ft 1 kts 62°
2026-05-06 19:06 8.97799 38.78270 7665 ft 1 kts 82°
2026-05-06 19:06 8.97802 38.78258 7665 ft 0 kts 85°
2026-05-06 19:06 8.97794 38.78249 7665 ft 1 kts 37°
2026-05-06 19:07 8.97790 38.78243 7665 ft 2 kts 98°
2026-05-06 19:07 8.97793 38.78233 7665 ft 1 kts 104°
2026-05-06 19:07 8.97784 38.78222 7665 ft 1 kts 38°
2026-05-06 19:07 8.97781 38.78214 7665 ft 2 kts 103°
2026-05-06 19:08 8.97784 38.78204 7665 ft 0 kts 69°
2026-05-06 19:08 8.97775 38.78195 7665 ft 1 kts 41°
2026-05-06 19:08 8.97773 38.78186 7665 ft 2 kts 105°
2026-05-06 19:08 8.97774 38.78179 7665 ft 0 kts 91°
2026-05-06 19:12 8.97774 38.78198 7665 ft 10 kts 92°
2026-05-06 19:13 8.97754 38.78304 7665 ft 20 kts 100°
2026-05-06 19:13 8.97734 38.78466 7665 ft 24 kts 92°
2026-05-06 19:13 8.97766 38.78640 7665 ft 17 kts 73°
2026-05-06 19:13 8.97788 38.78747 7665 ft 6 kts 118°
2026-05-06 19:14 8.97706 38.78778 7665 ft 19 kts 165°
2026-05-06 19:14 8.97597 38.78800 7665 ft 12 kts 201°
2026-05-06 19:14 8.97532 38.78724 7665 ft 20 kts 285°
2026-05-06 19:14 8.97501 38.78593 7665 ft 23 kts 250°
2026-05-06 19:15 8.97440 38.78402 7665 ft 32 kts 249°
2026-05-06 19:15 8.97348 38.78278 7665 ft 19 kts 156°
2026-05-06 19:15 8.97248 38.78378 7665 ft 18 kts 109°
2026-05-06 19:15 8.97256 38.78432 7665 ft 2 kts 73°
2026-05-06 19:16 8.97256 38.78433 7665 ft 0 kts 73°
2026-05-06 19:17 8.97257 38.78434 7665 ft 2 kts 73°
2026-05-06 19:17 8.97279 38.78509 7665 ft 28 kts 73°
2026-05-06 19:17 8.97399 38.78912 7665 ft 90 kts 73°
2026-05-06 19:18 8.97621 38.79691 7668 ft 135 kts 75°
2026-05-06 19:18 8.97862 38.80645 7898 ft 146 kts 77°
2026-05-06 19:18 8.98058 38.81690 8188 ft 154 kts 82°
2026-05-06 19:18 8.98138 38.82793 8536 ft 161 kts 86°
2026-05-06 19:19 8.98235 38.83941 8821 ft 171 kts 80°
2026-05-06 19:19 8.98508 38.85181 9078 ft 183 kts 73°
2026-05-06 19:19 8.99061 38.86348 9442 ft 188 kts 59°
2026-05-06 19:19 8.99757 38.87466 9817 ft 191 kts 58°
2026-05-06 19:20 9.00470 38.88618 10193 ft 194 kts 65°
2026-05-06 19:20 9.00892 38.89893 10588 ft 190 kts 76°
2026-05-06 19:20 9.01186 38.91202 10937 ft 190 kts 77°
2026-05-06 19:20 9.01454 38.92504 11258 ft 191 kts 78°
2026-05-06 19:21 9.01720 38.93827 11580 ft 191 kts 78°
2026-05-06 19:21 9.01980 38.95132 11895 ft 192 kts 78°
2026-05-06 19:21 9.02256 38.96458 12218 ft 192 kts 77°
2026-05-06 19:21 9.02774 38.97677 12553 ft 190 kts 56°
2026-05-06 19:22 9.03567 38.98725 12897 ft 188 kts 49°
2026-05-06 19:22 9.04455 38.99702 13197 ft 188 kts 47°
2026-05-06 19:22 9.05370 39.00662 13460 ft 190 kts 46°
2026-05-06 19:22 9.06293 39.01625 13725 ft 191 kts 46°
2026-05-06 19:23 9.07217 39.02588 13989 ft 192 kts 46°
2026-05-06 19:23 9.08154 39.03566 14256 ft 192 kts 46°
2026-05-06 19:23 9.09083 39.04538 14519 ft 192 kts 46°
2026-05-06 19:23 9.10012 39.05511 14780 ft 192 kts 46°
2026-05-06 19:24 9.10941 39.06475 15006 ft 194 kts 46°
2026-05-06 19:24 9.11899 39.07460 15230 ft 195 kts 46°
2026-05-06 19:24 9.12836 39.08431 15462 ft 196 kts 46°
2026-05-06 19:24 9.13774 39.09442 15703 ft 196 kts 47°
2026-05-06 19:25 9.14695 39.10450 15937 ft 196 kts 47°
2026-05-06 19:25 9.15619 39.11468 16171 ft 196 kts 47°
2026-05-06 19:25 9.16534 39.12482 16401 ft 196 kts 47°
2026-05-06 19:25 9.17460 39.13510 16631 ft 195 kts 47°
2026-05-06 19:26 9.18380 39.14534 16856 ft 195 kts 47°
2026-05-06 19:26 9.19290 39.15545 17077 ft 195 kts 47°
2026-05-06 19:26 9.20195 39.16550 17293 ft 195 kts 47°
2026-05-06 19:26 9.21114 39.17569 17512 ft 195 kts 47°
2026-05-06 19:27 9.22034 39.18589 17729 ft 195 kts 47°
2026-05-06 19:27 9.22943 39.19604 17944 ft 195 kts 48°
2026-05-06 19:27 9.23836 39.20647 18140 ft 197 kts 49°
2026-05-06 19:27 9.24698 39.21709 18321 ft 198 kts 53°
2026-05-06 19:28 9.25451 39.22885 18535 ft 198 kts 57°
2026-05-06 19:28 9.26159 39.24090 18690 ft 201 kts 59°
2026-05-06 19:28 9.26866 39.25313 18839 ft 204 kts 58°
2026-05-06 19:28 9.27614 39.26598 18818 ft 215 kts 59°
2026-05-06 19:29 9.28375 39.27911 18863 ft 220 kts 58°
2026-05-06 19:29 9.29156 39.29257 18860 ft 225 kts 59°
2026-05-06 19:29 9.29966 39.30652 18819 ft 231 kts 59°
2026-05-06 19:29 9.30782 39.32055 18840 ft 234 kts 59°
2026-05-06 19:30 9.31616 39.33488 18859 ft 237 kts 59°
2026-05-06 19:30 9.32459 39.34936 18848 ft 241 kts 59°
2026-05-06 19:30 9.33318 39.36413 18845 ft 244 kts 59°
2026-05-06 19:30 9.34184 39.37899 18841 ft 247 kts 59°
2026-05-06 19:31 9.35053 39.39391 18837 ft 250 kts 59°
2026-05-06 19:31 9.35935 39.40906 18847 ft 251 kts 59°
2026-05-06 19:31 9.37729 39.43982 18835 ft 255 kts 59°
2026-05-06 19:32 9.38636 39.45539 18848 ft 256 kts 59°
2026-05-06 19:32 9.39538 39.47086 18834 ft 258 kts 59°
2026-05-06 19:32 9.40457 39.48660 18846 ft 258 kts 58°
2026-05-06 19:32 9.41367 39.50231 18838 ft 260 kts 59°
2026-05-06 19:33 9.42260 39.51832 18845 ft 260 kts 60°
2026-05-06 19:33 9.43140 39.53435 18834 ft 261 kts 60°
2026-05-06 19:33 9.44016 39.55039 18846 ft 262 kts 60°
2026-05-06 19:33 9.44906 39.56669 18835 ft 263 kts 60°
2026-05-06 19:34 9.45789 39.58283 18847 ft 263 kts 60°
2026-05-06 19:34 9.46671 39.59899 18834 ft 263 kts 60°
2026-05-06 19:34 9.47552 39.61510 18848 ft 263 kts 60°
2026-05-06 19:34 9.48448 39.63150 18834 ft 264 kts 60°
2026-05-06 19:35 9.49326 39.64758 18847 ft 264 kts 60°
2026-05-06 19:35 9.50227 39.66415 18777 ft 267 kts 60°
2026-05-06 19:35 9.51102 39.68045 18827 ft 265 kts 61°
2026-05-06 19:35 9.51976 39.69679 18875 ft 264 kts 61°
2026-05-06 19:36 9.52854 39.71325 18809 ft 267 kts 61°
2026-05-06 19:36 9.53737 39.72977 18823 ft 266 kts 61°
2026-05-06 19:36 9.54614 39.74620 18889 ft 264 kts 61°
2026-05-06 19:36 9.55487 39.76253 18810 ft 267 kts 61°
2026-05-06 19:37 9.56368 39.77903 18828 ft 266 kts 61°
2026-05-06 19:37 9.57252 39.79556 18890 ft 264 kts 61°
2026-05-06 19:37 9.58130 39.81198 18807 ft 268 kts 61°
2026-05-06 19:37 9.58730 39.82320 18804 ft 267 kts 61°
2026-05-06 19:38 9.59897 39.84504 18886 ft 265 kts 61°
2026-05-06 19:38 9.60779 39.86151 18804 ft 268 kts 60°
2026-05-06 19:38 9.61671 39.87818 18841 ft 266 kts 61°
2026-05-06 19:38 9.62543 39.89451 18882 ft 265 kts 61°
2026-05-06 19:39 9.63427 39.91103 18800 ft 268 kts 61°
2026-05-06 19:39 9.64318 39.92768 18847 ft 266 kts 61°
2026-05-06 19:39 9.65199 39.94415 18877 ft 265 kts 60°
2026-05-06 19:39 9.66075 39.96054 18799 ft 268 kts 61°
2026-05-06 19:40 9.66964 39.97718 18851 ft 266 kts 61°
2026-05-06 19:40 9.67845 39.99368 18874 ft 266 kts 61°
2026-05-06 19:40 9.68720 40.01004 18795 ft 269 kts 60°
2026-05-06 19:40 9.69611 40.02669 18856 ft 266 kts 61°
2026-05-06 19:41 9.70490 40.04319 18868 ft 266 kts 61°
2026-05-06 19:41 9.71371 40.05970 18793 ft 269 kts 61°
2026-05-06 19:41 9.72259 40.07632 18862 ft 266 kts 61°
2026-05-06 19:41 9.73133 40.09270 18861 ft 266 kts 61°
2026-05-06 19:42 9.74019 40.10928 18791 ft 269 kts 61°
2026-05-06 19:42 9.74902 40.12581 18866 ft 265 kts 61°
2026-05-06 19:42 9.75779 40.14222 18854 ft 266 kts 60°
2026-05-06 19:42 9.76668 40.15885 18791 ft 269 kts 60°
2026-05-06 19:43 9.77553 40.17538 18870 ft 265 kts 60°
2026-05-06 19:43 9.78428 40.19176 18847 ft 267 kts 61°
2026-05-06 19:43 9.79317 40.20844 18793 ft 268 kts 61°
2026-05-06 19:43 9.80196 40.22490 18875 ft 265 kts 60°
2026-05-06 19:44 9.81074 40.24136 18843 ft 267 kts 61°
2026-05-06 19:44 9.81962 40.25803 18795 ft 268 kts 61°
2026-05-06 19:44 9.82837 40.27446 18877 ft 265 kts 61°
2026-05-06 19:44 9.83719 40.29084 18840 ft 267 kts 59°
2026-05-06 19:45 9.84670 40.30696 18815 ft 267 kts 57°
2026-05-06 19:45 9.85666 40.32305 18829 ft 267 kts 57°
2026-05-06 19:45 9.86657 40.33884 18832 ft 267 kts 57°
2026-05-06 19:45 9.87657 40.35472 18846 ft 266 kts 57°
2026-05-06 19:46 9.88646 40.37044 18832 ft 267 kts 57°
2026-05-06 19:46 9.89642 40.38627 18850 ft 266 kts 57°
2026-05-06 19:46 9.90638 40.40210 18831 ft 267 kts 57°
2026-05-06 19:46 9.91637 40.41795 18844 ft 266 kts 57°
2026-05-06 19:47 9.92631 40.43374 18836 ft 267 kts 57°
2026-05-06 19:47 9.93624 40.44976 18846 ft 266 kts 58°
2026-05-06 19:47 9.94590 40.46584 18863 ft 266 kts 58°
2026-05-06 19:47 9.95538 40.48182 18868 ft 265 kts 58°
2026-05-06 19:48 9.96482 40.49808 18878 ft 265 kts 59°
2026-05-06 19:48 9.97386 40.51437 18855 ft 266 kts 60°
2026-05-06 19:48 9.98275 40.53066 18870 ft 266 kts 60°
2026-05-06 19:48 9.99181 40.54691 18869 ft 266 kts 58°
2026-05-06 19:49 10.00182 40.56287 18874 ft 266 kts 56°
2026-05-06 19:49 10.01207 40.57827 18851 ft 266 kts 54°
2026-05-06 19:49 10.02272 40.59358 18863 ft 266 kts 54°
2026-05-06 19:49 10.03354 40.60891 18870 ft 266 kts 54°
2026-05-06 19:50 10.04435 40.62416 18874 ft 266 kts 54°
2026-05-06 19:50 10.05518 40.63941 18863 ft 266 kts 53°
2026-05-06 19:50 10.06586 40.65445 18873 ft 266 kts 54°
2026-05-06 19:50 10.07670 40.66989 18800 ft 269 kts 54°
2026-05-06 19:51 10.08744 40.68535 18885 ft 265 kts 54°
2026-05-06 19:51 10.09798 40.70055 18892 ft 265 kts 54°
2026-05-06 19:51 10.10899 40.71569 18805 ft 269 kts 52°
2026-05-06 19:51 10.12054 40.73056 18860 ft 266 kts 51°
2026-05-06 19:52 10.13222 40.74526 18891 ft 266 kts 51°
2026-05-06 19:52 10.14383 40.75979 18873 ft 267 kts 51°
2026-05-06 19:52 10.15551 40.77441 18872 ft 267 kts 51°
2026-05-06 19:52 10.16713 40.78895 18860 ft 268 kts 51°
2026-05-06 19:53 10.17896 40.80375 18880 ft 267 kts 51°
2026-05-06 19:53 10.19053 40.81822 18860 ft 268 kts 51°
2026-05-06 19:53 10.20239 40.83300 18877 ft 267 kts 51°
2026-05-06 19:53 10.21406 40.84743 18862 ft 268 kts 51°
2026-05-06 19:54 10.22596 40.86207 18873 ft 268 kts 51°
2026-05-06 19:54 10.23776 40.87651 18865 ft 268 kts 51°
2026-05-06 19:54 10.24986 40.89125 18869 ft 269 kts 51°
2026-05-06 19:54 10.26178 40.90569 18867 ft 269 kts 51°
2026-05-06 19:55 10.27377 40.92017 18870 ft 269 kts 51°
2026-05-06 19:55 10.28579 40.93462 18870 ft 270 kts 51°
2026-05-06 19:55 10.29790 40.94914 18868 ft 270 kts 51°
2026-05-06 19:55 10.31016 40.96378 18872 ft 270 kts 51°
2026-05-06 19:56 10.32232 40.97827 18865 ft 271 kts 51°
2026-05-06 19:56 10.33462 40.99292 18873 ft 271 kts 51°
2026-05-06 19:56 10.34677 41.00736 18862 ft 272 kts 51°
2026-05-06 19:56 10.35914 41.02203 18875 ft 272 kts 51°
2026-05-06 19:57 10.37152 41.03670 18860 ft 273 kts 51°
2026-05-06 19:57 10.38372 41.05114 18877 ft 273 kts 51°
2026-05-06 19:57 10.39615 41.06582 18861 ft 274 kts 51°
2026-05-06 19:57 10.40805 41.08092 18909 ft 272 kts 56°
2026-05-06 19:58 10.41857 41.09691 18866 ft 274 kts 58°
2026-05-06 19:58 10.42874 41.11337 18810 ft 276 kts 59°
2026-05-06 19:58 10.43873 41.12985 18887 ft 273 kts 59°
2026-05-06 19:58 10.44863 41.14625 18892 ft 273 kts 60°
2026-05-06 19:59 10.45864 41.16290 18869 ft 275 kts 60°
2026-05-06 19:59 10.46866 41.17956 18869 ft 275 kts 59°
2026-05-06 19:59 10.47855 41.19598 18864 ft 275 kts 60°
2026-05-06 19:59 10.48855 41.21262 18875 ft 275 kts 60°
2026-05-06 20:00 10.49862 41.22935 18863 ft 275 kts 59°
2026-05-06 20:00 10.50864 41.24598 18874 ft 275 kts 59°
2026-05-06 20:00 10.51859 41.26250 18860 ft 276 kts 60°
2026-05-06 20:00 10.52859 41.27914 18877 ft 275 kts 60°
2026-05-06 20:01 10.53853 41.29566 18859 ft 276 kts 59°
2026-05-06 20:01 10.54864 41.31249 18876 ft 275 kts 60°
2026-05-06 20:01 10.55862 41.32896 18863 ft 276 kts 59°
2026-05-06 20:01 10.56891 41.34536 18869 ft 276 kts 58°
2026-05-06 20:02 10.57923 41.36163 18864 ft 276 kts 58°
2026-05-06 20:02 10.58971 41.37807 18874 ft 275 kts 58°
2026-05-06 20:02 10.60004 41.39429 18868 ft 276 kts 58°
2026-05-06 20:02 10.61050 41.41070 18870 ft 276 kts 58°
2026-05-06 20:03 10.62091 41.42701 18874 ft 276 kts 58°
2026-05-06 20:03 10.63133 41.44334 18863 ft 276 kts 58°
2026-05-06 20:03 10.64182 41.45976 18880 ft 275 kts 58°
2026-05-06 20:03 10.65227 41.47616 18863 ft 276 kts 58°
2026-05-06 20:04 10.66263 41.49244 18877 ft 276 kts 58°
2026-05-06 20:04 10.67303 41.50877 18860 ft 276 kts 58°
2026-05-06 20:04 10.68351 41.52520 18875 ft 276 kts 58°
2026-05-06 20:04 10.69388 41.54147 18860 ft 276 kts 58°
2026-05-06 20:05 10.70439 41.55798 18871 ft 276 kts 58°
2026-05-06 20:05 10.71484 41.57441 18864 ft 276 kts 58°
2026-05-06 20:05 10.72518 41.59071 18872 ft 276 kts 59°
2026-05-06 20:05 10.73531 41.60724 18885 ft 275 kts 59°
2026-05-06 20:06 10.74535 41.62393 18860 ft 276 kts 60°
2026-05-06 20:06 10.75528 41.64051 18874 ft 276 kts 60°
2026-05-06 20:06 10.76528 41.65726 18846 ft 277 kts 60°
2026-05-06 20:06 10.77510 41.67389 18821 ft 277 kts 60°
2026-05-06 20:07 10.78497 41.69072 18900 ft 274 kts 60°
2026-05-06 20:07 10.79473 41.70737 18861 ft 277 kts 60°
2026-05-06 20:07 10.80458 41.72433 18833 ft 277 kts 61°
2026-05-06 20:07 10.81392 41.74116 18920 ft 274 kts 62°
2026-05-06 20:08 10.82319 41.75822 18849 ft 277 kts 62°
2026-05-06 20:08 10.83247 41.77544 18845 ft 277 kts 62°
2026-05-06 20:08 10.84166 41.79250 18922 ft 274 kts 62°
2026-05-06 20:08 10.85076 41.80938 18846 ft 277 kts 62°
2026-05-06 20:09 10.86001 41.82655 18851 ft 277 kts 62°
2026-05-06 20:09 10.86930 41.84378 18920 ft 274 kts 62°
2026-05-06 20:09 10.87852 41.86087 18841 ft 278 kts 62°
2026-05-06 20:09 10.88774 41.87801 18858 ft 276 kts 62°
2026-05-06 20:10 10.89695 41.89514 18919 ft 274 kts 62°
2026-05-06 20:10 10.90611 41.91225 18840 ft 277 kts 62°
2026-05-06 20:10 10.91533 41.92958 18864 ft 276 kts 62°
2026-05-06 20:10 10.92438 41.94663 18918 ft 274 kts 62°
2026-05-06 20:11 10.93339 41.96370 18836 ft 277 kts 62°
2026-05-06 20:11 10.94246 41.98101 18867 ft 275 kts 62°
2026-05-06 20:11 10.95135 41.99804 18915 ft 273 kts 62°
2026-05-06 20:11 10.96030 42.01530 18832 ft 276 kts 62°
2026-05-06 20:12 10.96910 42.03239 18872 ft 274 kts 62°
2026-05-06 20:12 10.97795 42.04969 18909 ft 273 kts 62°
2026-05-06 20:12 10.98670 42.06676 18828 ft 276 kts 62°
2026-05-06 20:12 10.99573 42.08383 18883 ft 273 kts 61°
2026-05-06 20:13 11.00477 42.10074 18894 ft 273 kts 61°
2026-05-06 20:13 11.01389 42.11785 18819 ft 275 kts 61°
2026-05-06 20:13 11.02296 42.13496 18892 ft 272 kts 61°
2026-05-06 20:13 11.03185 42.15179 18887 ft 273 kts 61°
2026-05-06 20:14 11.04083 42.16895 18820 ft 275 kts 61°
2026-05-06 20:14 11.04759 42.18693 18953 ft 271 kts 75°
2026-05-06 20:14 11.04981 42.20615 18875 ft 276 kts 86°
2026-05-06 20:14 11.04987 42.22590 18750 ft 281 kts 89°
2026-05-06 20:15 11.04926 42.24543 18889 ft 275 kts 90°
2026-05-06 20:15 11.04846 42.26468 18896 ft 276 kts 90°
2026-05-06 20:15 11.04760 42.28431 18819 ft 278 kts 90°
2026-05-06 20:15 11.04672 42.30389 18892 ft 275 kts 91°
2026-05-06 20:16 11.04584 42.32315 18877 ft 271 kts 91°
2026-05-06 20:16 11.04454 42.34227 18804 ft 268 kts 92°
2026-05-06 20:16 11.04296 42.36118 18670 ft 264 kts 93°
2026-05-06 20:16 11.04134 42.37944 18502 ft 256 kts 93°
2026-05-06 20:17 11.03972 42.39728 18312 ft 250 kts 93°
2026-05-06 20:17 11.03814 42.41471 18108 ft 247 kts 93°
2026-05-06 20:17 11.03660 42.43200 17889 ft 244 kts 92°
2026-05-06 20:17 11.03571 42.44888 17690 ft 241 kts 90°
2026-05-06 20:18 11.03511 42.46594 17463 ft 239 kts 90°
2026-05-06 20:18 11.03460 42.48266 17233 ft 237 kts 90°
2026-05-06 20:18 11.03429 42.49957 17010 ft 236 kts 88°
2026-05-06 20:18 11.03429 42.51611 16786 ft 234 kts 88°
2026-05-06 20:19 11.03438 42.53245 16558 ft 233 kts 88°
2026-05-06 20:19 11.03449 42.54913 16325 ft 233 kts 88°
2026-05-06 20:19 11.03460 42.56541 16098 ft 232 kts 88°
2026-05-06 20:19 11.03472 42.58190 15870 ft 231 kts 88°
2026-05-06 20:20 11.03485 42.59821 15646 ft 231 kts 88°
2026-05-06 20:20 11.03498 42.61445 15426 ft 230 kts 88°
2026-05-06 20:20 11.03511 42.63074 15206 ft 229 kts 88°
2026-05-06 20:20 11.03525 42.64685 14991 ft 229 kts 88°
2026-05-06 20:21 11.03539 42.66311 14735 ft 230 kts 88°
2026-05-06 20:21 11.03554 42.67949 14445 ft 233 kts 88°
2026-05-06 20:21 11.03571 42.69606 14165 ft 235 kts 88°
2026-05-06 20:21 11.03590 42.71264 13898 ft 237 kts 88°
2026-05-06 20:22 11.03609 42.72937 13638 ft 237 kts 88°
2026-05-06 20:22 11.03496 42.74627 13401 ft 238 kts 101°
2026-05-06 20:22 11.02898 42.76173 13203 ft 238 kts 120°
2026-05-06 20:22 11.01836 42.77470 12993 ft 238 kts 138°
2026-05-06 20:23 11.00442 42.78360 12785 ft 238 kts 154°
2026-05-06 20:23 10.98890 42.78929 12564 ft 239 kts 167°
2026-05-06 20:23 10.97248 42.79008 12399 ft 238 kts 185°
2026-05-06 20:23 10.95658 42.78572 12271 ft 234 kts 203°
2026-05-06 20:24 10.94306 42.77683 12146 ft 232 kts 221°
2026-05-06 20:24 10.93301 42.76435 12024 ft 229 kts 239°
2026-05-06 20:24 10.92713 42.74939 11905 ft 226 kts 255°
2026-05-06 20:24 10.92458 42.73373 11779 ft 224 kts 269°
2026-05-06 20:25 10.92669 42.71817 11655 ft 221 kts 289°
2026-05-06 20:25 10.93299 42.70426 11541 ft 218 kts 302°
2026-05-06 20:25 10.94270 42.69260 11414 ft 214 kts 320°
2026-05-06 20:25 10.95419 42.68337 11290 ft 212 kts 326°
2026-05-06 20:26 10.96733 42.67680 11150 ft 209 kts 346°
2026-05-06 20:26 10.98146 42.67541 11018 ft 205 kts
2026-05-06 20:26 10.99507 42.67929 10871 ft 203 kts 27°
2026-05-06 20:26 11.00703 42.68701 10723 ft 203 kts 36°
2026-05-06 20:27 11.01832 42.69567 10542 ft 205 kts 37°
2026-05-06 20:27 11.02961 42.70463 10353 ft 207 kts 38°
2026-05-06 20:27 11.04100 42.71377 10168 ft 209 kts 38°
2026-05-06 20:27 11.05242 42.72296 9991 ft 209 kts 38°
2026-05-06 20:28 11.06380 42.73213 9823 ft 210 kts 38°
2026-05-06 20:28 11.07523 42.74133 9661 ft 210 kts 38°
2026-05-06 20:28 11.08660 42.75048 9502 ft 210 kts 38°
2026-05-06 20:28 11.09811 42.75974 9331 ft 209 kts 38°
2026-05-06 20:29 11.10948 42.76883 9105 ft 211 kts 37°
2026-05-06 20:29 11.12114 42.77803 8855 ft 213 kts 37°
2026-05-06 20:29 11.13309 42.78742 8627 ft 218 kts 37°
2026-05-06 20:29 11.14519 42.79693 8418 ft 221 kts 37°
2026-05-06 20:30 11.15737 42.80648 8225 ft 223 kts 37°
2026-05-06 20:30 11.18216 42.82593 7864 ft 225 kts 37°
2026-05-06 20:30 11.19471 42.83576 7692 ft 226 kts 37°
2026-05-06 20:31 11.20707 42.84542 7528 ft 226 kts 37°
2026-05-06 20:31 11.21962 42.85522 7366 ft 225 kts 37°
2026-05-06 20:31 11.23192 42.86483 7209 ft 225 kts 37°
2026-05-06 20:31 11.24441 42.87459 7050 ft 225 kts 37°
2026-05-06 20:32 11.25671 42.88421 6893 ft 224 kts 37°
2026-05-06 20:32 11.26910 42.89389 6736 ft 223 kts 37°
2026-05-06 20:32 11.28140 42.90350 6580 ft 223 kts 37°
2026-05-06 20:32 11.29359 42.91302 6427 ft 222 kts 37°
2026-05-06 20:33 11.30575 42.92250 6298 ft 219 kts 37°
2026-05-06 20:33 11.31785 42.93195 6155 ft 215 kts 37°
2026-05-06 20:33 11.32977 42.94083 6016 ft 211 kts 34°
2026-05-06 20:33 11.34174 42.94915 5863 ft 209 kts 34°
2026-05-06 20:34 11.35375 42.95738 5700 ft 207 kts 34°
2026-05-06 20:34 11.36596 42.96523 5547 ft 205 kts 30°
2026-05-06 20:34 11.37830 42.97242 5384 ft 204 kts 30°
2026-05-06 20:34 11.39065 42.97947 5212 ft 203 kts 29°
2026-05-06 20:35 11.40286 42.98642 5044 ft 203 kts 29°
2026-05-06 20:35 11.41526 42.99344 4873 ft 202 kts 29°
2026-05-06 20:35 11.42732 43.00042 4715 ft 200 kts 31°
2026-05-06 20:35 11.43905 43.00807 4569 ft 199 kts 33°
2026-05-06 20:36 11.45030 43.01608 4419 ft 197 kts 39°
2026-05-06 20:36 11.46061 43.02517 4281 ft 196 kts 42°
2026-05-06 20:36 11.47057 43.03447 4118 ft 195 kts 43°
2026-05-06 20:36 11.48063 43.04395 3949 ft 195 kts 43°
2026-05-06 20:37 11.49054 43.05325 3786 ft 195 kts 43°
2026-05-06 20:37 11.50068 43.06245 3625 ft 194 kts 38°
2026-05-06 20:37 11.51179 43.07016 3496 ft 193 kts 33°
2026-05-06 20:37 11.52324 43.07741 3430 ft 196 kts 32°
2026-05-06 20:38 11.53492 43.08464 3417 ft 199 kts 32°
2026-05-06 20:38 11.54687 43.09205 3429 ft 200 kts 32°
2026-05-06 20:38 11.55857 43.09952 3431 ft 202 kts 36°
2026-05-06 20:38 11.56824 43.10966 3453 ft 201 kts 56°
2026-05-06 20:39 11.57398 43.12272 3447 ft 203 kts 72°
2026-05-06 20:39 11.57744 43.13679 3423 ft 205 kts 78°
2026-05-06 20:39 11.57986 43.15115 3411 ft 207 kts 79°
2026-05-06 20:39 11.58255 43.16556 3421 ft 207 kts 78°
2026-05-06 20:40 11.58540 43.18001 3427 ft 207 kts 78°
2026-05-06 20:40 11.58826 43.19442 3402 ft 205 kts 78°
2026-05-06 20:40 11.59108 43.20859 3247 ft 203 kts 78°
2026-05-06 20:40 11.59385 43.22251 3088 ft 201 kts 78°
2026-05-06 20:41 11.59662 43.23646 2925 ft 200 kts 78°
2026-05-06 20:41 11.59936 43.25029 2760 ft 199 kts 78°
2026-05-06 20:41 11.60208 43.26410 2594 ft 198 kts 78°
2026-05-06 20:41 11.60480 43.27786 2428 ft 197 kts 78°
2026-05-06 20:42 11.60750 43.29156 2270 ft 196 kts 78°
2026-05-06 20:42 11.61012 43.30484 2224 ft 188 kts 78°
2026-05-06 20:42 11.61153 43.31765 2172 ft 180 kts 93°
2026-05-06 20:42 11.60820 43.32979 2078 ft 177 kts 116°
2026-05-06 20:43 11.60040 43.33928 1961 ft 176 kts 140°
2026-05-06 20:43 11.58946 43.34460 1823 ft 177 kts 165°
2026-05-06 20:43 11.57721 43.34484 1669 ft 179 kts 189°
2026-05-06 20:43 11.56569 43.34029 1562 ft 177 kts 204°
2026-05-06 20:44 11.55524 43.33351 1568 ft 178 kts 223°
2026-05-06 20:44 11.54830 43.32321 1563 ft 179 kts 246°
2026-05-06 20:44 11.54507 43.31081 1569 ft 179 kts 259°
2026-05-06 20:44 11.54304 43.29831 1577 ft 176 kts 262°
2026-05-06 20:45 11.54149 43.28618 1524 ft 172 kts 271°
2026-05-06 20:45 11.54217 43.27425 1523 ft 164 kts 278°
2026-05-06 20:45 11.54372 43.26295 1443 ft 164 kts 284°
2026-05-06 20:45 11.54862 43.25219 1248 ft 166 kts 299°
2026-05-06 20:46 11.55232 43.24118 1170 ft 165 kts 280°
2026-05-06 20:46 11.55145 43.22983 1164 ft 158 kts 257°
2026-05-06 20:46 11.54798 43.21900 956 ft 166 kts 256°
2026-05-06 20:46 11.54637 43.20787 965 ft 149 kts 269°
2026-05-06 20:47 11.54650 43.19737 751 ft 149 kts 272°
2026-05-06 20:47 11.54692 43.18687 473 ft 143 kts 273°
2026-05-06 20:47 11.54705 43.17695 162 ft 133 kts 271°
2026-05-06 20:47 11.54726 43.16818 61 ft 113 kts 271°
2026-05-06 20:48 11.54735 43.16073 58 ft 88 kts 269°
2026-05-06 20:48 11.54741 43.15606 58 ft 58 kts 271°
2026-05-06 20:48 11.54739 43.15241 58 ft 27 kts 279°
2026-05-06 20:48 11.54641 43.15143 58 ft 25 kts 181°
2026-05-06 20:49 11.54560 43.15049 58 ft 16 kts 275°
2026-05-06 20:49 11.54520 43.14967 58 ft 2 kts 184°
2026-05-06 20:49 11.54517 43.14967 58 ft 0 kts 182°